User: anonymous   Login
Location: Unspecified
(0.0000°N, 0.0000°E)
Time: 10:34:05
(UTC+00:00)
Language:

FAST 1 (USA 222) - Orbit

View from above orbital plane
View from above orbital plane
View from above satellite
View from above satellite

Ground track
Ground track

The orbit data is extracted from the following two-line orbital elements,

1 37227U 10062F   22269.79044532  .00000517  00000-0  75451-4 0  9994
2 37227  71.9663 282.6312 0014993 154.6132 205.5771 14.80137064164380
Epoch (UTC): 26 September 2022 18:58:14
Eccentricity: 0.0014993
inclination: 71.9663°
perigee height: 618 km
apogee height: 639 km
right ascension of ascending node: 282.6312°
argument of perigee: 154.6132°
revolutions per day: 14.80137064
mean anomaly at epoch: 205.5771°
orbit number at epoch: 16438

The dashed part of the orbit path shows where the satellite is in the earth's shadow,  

DLR